Regional Weather Roundup
Issued by NWS

Home | Current Version | Previous Version | Text Only | Print | Product List | Glossary On
Versions: 1 2 3 4 5 6 7 8 9 10 11 12 13 14 15 16 17 18 19 20 21 22 23 24 25 26 27 28 29 30 31 32 33 34 35 36 37 38 39 40 41 42 43 44 45 46 47 48 49 50
000
ASUS44 KFWD 110003
RWRTX
NORTH TEXAS HOURLY WEATHER ROUNDUP
NATIONAL WEATHER SERVICE FORT WORTH TX
600 PM CST SUN DEC 10 2017

NOTE: "FAIR" INDICATES FEW OR NO CLOUDS BELOW 12,000 FEET WITH NO
SIGNIFICANT WEATHER AND/OR OBSTRUCTIONS TO VISIBILITY.

TXZ118-119-110100-
DALLAS/FORT WORTH METROPLEX

CITY           SKY/WX    TMP DP  RH WIND       PRES   REMARKS
DFW AIRPORT    PTCLDY    67  17  14 SW6       30.27F
6HR MIN TEMP:  64; 6HR MAX TEMP:  74;

DALLAS LOVE    PTCLDY    66  19  16 CALM      30.28F
6HR MIN TEMP:  62; 6HR MAX TEMP:  72;

FTW MEACHAM    CLEAR     65  20  17 W3        30.29S
6HR MIN TEMP:  65; 6HR MAX TEMP:  74;

DAL-EXECUTIVE  CLEAR     61  21  21 SW6       30.28F
6HR MIN TEMP:  61; 6HR MAX TEMP:  71;

FTW-ALLIANCE   PTCLDY    58  19  22 CALM      30.29S
6HR MIN TEMP:  58; 6HR MAX TEMP:  72;

FTW-NAS-JRB    PTCLDY    66  14  13 SW6       30.30S
6HR MIN TEMP:  65; 6HR MAX TEMP:  73;

FTW-SPINKS     CLEAR     61  19  20 CALM      30.31F
ARLINGTON      CLEAR     53  23  31 CALM      30.30S
6HR MIN TEMP:  53; 6HR MAX TEMP:  71;

GRAND PRAIRIE  CLEAR     64  19  17 CALM      30.30F
ADDISON        CLEAR     64  19  17 SW3       30.29S
MESQUITE       CLEAR     63  19  19 S5        30.29F
LANCASTER      CLEAR     61  19  19 CALM      30.30F
6HR MIN TEMP:  61; 6HR MAX TEMP:  71;

$$

TXZ091>094-102>105-117-120-121-131>134-110100-
NORTH CENTRAL TEXAS

CITY           SKY/WX    TMP DP  RH WIND       PRES   REMARKS
SHRMAN/DENISON CLEAR     59  17  19 CALM      30.28S
6HR MIN TEMP:  58; 6HR MAX TEMP:  71;

GAINESVILLE    CLEAR     59  14  17 W5        30.31R
6HR MIN TEMP:  59; 6HR MAX TEMP:  71;

BOWIE          CLEAR     61  13  15 W5        30.30R
6HR MIN TEMP:  61; 6HR MAX TEMP:  71;

BRIDGEPORT     CLEAR     54  18  24 CALM      30.31S
6HR MIN TEMP:  54; 6HR MAX TEMP:  73;

DECATUR        CLEAR     63  11  13 W5        30.29R
6HR MIN TEMP:  60; 6HR MAX TEMP:  72;

DENTON         CLEAR     61  19  19 W7        30.28S
6HR MIN TEMP:  61; 6HR MAX TEMP:  71;

MCKINNEY       CLEAR     62  21  20 W5        30.28S
6HR MIN TEMP:  62; 6HR MAX TEMP:  69;

BONHAM         CLEAR     60  17  18 W6        30.27R
6HR MIN TEMP:  60; 6HR MAX TEMP:  70;

ROCKWALL       CLEAR     60  27  28 SW6       30.29S
6HR MIN TEMP:  59; 6HR MAX TEMP:  68;

TERRELL        CLEAR     58  21  24 SW5       30.29S
6HR MIN TEMP:  58; 6HR MAX TEMP:  71;

WAXAHACHIE     CLEAR     61  24  24 CALM      30.32S
6HR MIN TEMP:  61; 6HR MAX TEMP:  71;

CLEBURNE       CLEAR     64  18  16 CALM      30.32S
GRANBURY       CLEAR     59  17  19 CALM      30.32S
6HR MIN TEMP:  59; 6HR MAX TEMP:  74;

$$

TXZ083>090-098>101-113>116-127>130-139>142-154-155-110100-
WESTERN NORTH TEXAS

CITY           SKY/WX    TMP DP  RH WIND       PRES   REMARKS
WICHITA FALLS  CLEAR     65  14  14 W5        30.28F
6HR MIN TEMP:  61; 6HR MAX TEMP:  72;

WF-KICKAPOO    CLEAR     63  14  15 S3        30.31S
6HR MIN TEMP:  60; 6HR MAX TEMP:  72;

VERNON         CLEAR     66  -9   5 W5        30.30S
6HR MIN TEMP:  30; 6HR MAX TEMP:  75;

ABILENE        CLEAR     63  12  13 W6        30.34S
6HR MIN TEMP:  62; 6HR MAX TEMP:  71;

ABILENE-DYESS  CLEAR     59  18  20 SW7       30.33S
6HR MIN TEMP:  59; 6HR MAX TEMP:  72;

GRAHAM           N/A     62  17  17 CALM      30.29S
6HR MIN TEMP:  62; 6HR MAX TEMP:  74;

BRECKENRIDGE   CLEAR     65  12  12 W5        30.31S
6HR MIN TEMP:  64; 6HR MAX TEMP:  74;

CISCO          CLEAR     61  10  13 W3        30.34S
EASTLAND       CLEAR     53  14  21 CALM      30.33R
6HR MIN TEMP:  50; 6HR MAX TEMP:  72;

RANGER           N/A     54  14  20 CALM      30.32S
6HR MIN TEMP:  17; 6HR MAX TEMP:  80;

MINERAL WELLS  CLEAR     63  11  13 SW5       30.29S
6HR MIN TEMP:  62; 6HR MAX TEMP:  73;

STEPHENVILLE   CLOUDY    64  11  12 CALM      30.35S
6HR MIN TEMP:  64; 6HR MAX TEMP:  73;

COMANCHE       CLEAR     66  18  16 CALM      30.34S
6HR MIN TEMP:  65; 6HR MAX TEMP:  72;

COLEMAN        CLEAR     62  18  18 SW5       30.35S
6HR MIN TEMP:  62; 6HR MAX TEMP:  72;

$$

TXZ143>147-156>162-174-175-110100-
CENTRAL TEXAS

CITY           SKY/WX    TMP DP  RH WIND       PRES   REMARKS
WACO           CLEAR     53  35  50 S6        30.32S
6HR MIN TEMP:  53; 6HR MAX TEMP:  71;

WACO-TSTC      CLEAR     57  25  28 S5        30.32S
WACO-MCGREGOR  CLEAR     57  29  34 S6        30.33S
6HR MIN TEMP:  57; 6HR MAX TEMP:  70;

HILLSBORO      CLEAR     61  24  24 CALM      30.30S
6HR MIN TEMP:  59; 6HR MAX TEMP:  72;

CORSICANA      CLEAR     58  25  28 S6        30.32S
6HR MIN TEMP:  58; 6HR MAX TEMP:  70;

MEXIA          CLEAR     57  27  32 S7        30.32R
6HR MIN TEMP:  55; 6HR MAX TEMP:  67;

HEARNE         CLEAR     55  32  41 CALM      30.36S
6HR MIN TEMP:  55; 6HR MAX TEMP:  66;

CAMERON        CLEAR     57  32  38 S6        30.34S
6HR MIN TEMP:  57; 6HR MAX TEMP:  69;

TEMPLE         CLEAR     60  26  27 S6        30.34S
6HR MIN TEMP:  60; 6HR MAX TEMP:  70;

KILLEEN        CLEAR     62  28  27 CALM      30.33S
6HR MIN TEMP:  61; 6HR MAX TEMP:  69;

KILLEEN-SKYLRK CLEAR     60  29  30 SW6       30.35R
6HR MIN TEMP:  60; 6HR MAX TEMP:  70;

FORT HOOD      CLEAR     61  24  24 SW5       30.31R
6HR MIN TEMP:  61; 6HR MAX TEMP:  70;

GATESVILLE     CLEAR     59  25  27 CALM      30.35S
HAMILTON       CLEAR     62  20  20 SW6       30.34S
6HR MIN TEMP:  62; 6HR MAX TEMP:  71;

LAMPASAS       CLEAR     56  23  28 CALM      30.34S
6HR MIN TEMP:  56; 6HR MAX TEMP:  69;

$$

TXZ095>097-106>112-122>126-135>138-148>153-164>167-110100-
EAST TEXAS

CITY           SKY/WX    TMP DP  RH WIND       PRES   REMARKS
PARIS          CLEAR     56  25  30 SW7       30.26R
6HR MIN TEMP:  56; 6HR MAX TEMP:  69;

SULPHUR SPRNGS CLEAR     56  24  29 SW8       30.30S
6HR MIN TEMP:  56; 6HR MAX TEMP:  68;

MOUNT PLEASANT CLEAR     60  26  27 S5        30.29R
6HR MIN TEMP:  60; 6HR MAX TEMP:  66;

GILMER         CLEAR     58  27  30 S6        30.29S
6HR MIN TEMP:  58; 6HR MAX TEMP:  65;

MINEOLA        CLEAR     61  25  25 SW6       30.29R
TYLER          CLEAR     58  24  27 SW6       30.30S
6HR MIN TEMP:  58; 6HR MAX TEMP:  65;

LONGVIEW       CLEAR     58  29  33 SW6       30.29S
6HR MIN TEMP:  57; 6HR MAX TEMP:  66;

MARSHALL       CLEAR     55  25  31 SW3       30.31S
6HR MIN TEMP:  55; 6HR MAX TEMP:  65;

ATHENS         CLEAR     52  23  32 CALM      30.30S
PALESTINE      CLEAR     56  28  35 S3        30.33S
JACKSONVILLE   CLEAR     56  29  34 SW3       30.33S
HENDERSON      CLEAR     55  28  35 CALM      30.31S
6HR MIN TEMP:  55; 6HR MAX TEMP:  65;

CENTER         CLEAR     49  31  50 CALM      30.32S
6HR MIN TEMP:  49; 6HR MAX TEMP:  63;

NACOGDOCHES    CLEAR     50  33  52 CALM      30.33S
6HR MIN TEMP:  50; 6HR MAX TEMP:  64;

LUFKIN         CLOUDY    51  36  56 CALM      30.33F
6HR MIN TEMP:  51; 6HR MAX TEMP:  63;

$$

SUPPLEMENTAL OBSERVATIONS (NWS FORT WORTH AREA)

CITY           SKY/WX    TMP DP  RH WIND       PRES   REMARKS
$$

SUPPLEMENTAL OBSERVATIONS (NWS NORMAN AREA)

CITY



USA.gov is the U.S. government's official web portal to all federal, state and local government web resources and services.